Regional Weather Roundup
Issued by NWS Bismarck, ND

Home | Current Version | Previous Version | Text Only | Print | Product List | Glossary On
Versions: 1 2 3 4 5 6 7 8 9 10 11 12 13 14 15 16 17 18 19 20 21 22 23 24 25 26 27 28 29 30 31 32 33 34 35 36 37 38 39 40 41 42 43 44 45 46 47 48 49 50
000
ASUS43 KBIS 022310
RWRBIS

NWR BROADCAST TEXT
NATIONAL WEATHER SERVICE BISMARCK ND
600 PM CDT WED SEP 02 2015

NOTE: "FAIR" INDICATES FEW OR NO CLOUDS BELOW 12,000 FEET WITH NO
SIGNIFICANT WEATHER AND/OR OBSTRUCTIONS TO VISIBILITY.


CITY           SKY/WX    TMP DP  RH WIND       PRES   REMARKS
WILLISTON      MOSUNNY  100  43  14 SW8       29.63F HX  96
MINOT          SUNNY     93  60  33 SE12      29.68S HX  93
MINOT AFB      SUNNY     94  60  31 SE13      29.67S HX  94
BISMARCK       MOSUNNY   92  65  40 S10       29.71F HX  94
DICKINSON      SUNNY     97  43  15 S10       29.69F HX  93
GARRISON         N/A     92  62  36 SE12      29.70S HX  92
HETTINGER ARPT SUNNY     95  48  20 S9        29.74F HX  91
JAMESTOWN      SUNNY     87  69  54 SE18      29.75F HX  91
CROSBY         FAIR      95  48  20 S10       29.64F HX  91
HARVEY         FAIR      90  68  48 SE13G21   29.72F HX  93
HAZEN          FAIR      93  55  27 SE10G17   29.70S HX  91
LINTON         FAIR      90  70  51 SE12      29.73F HX  95
OAKES            N/A     90  82  79 SE16G22   29.76S HX 111
RUGBY          FAIR      90  66  45 SE14G22   29.71F HX  92
STANLEY        FAIR      88  59  37 S12G20    29.70F
$$

CITY           SKY/WX    TMP DP  RH WIND       PRES   REMARKS
GRAND FORKS    MOSUNNY   89  63  41 SE16      29.76R HX  90
GRAND FORKS AF SUNNY     88  65  47 S15       29.77S
DEVILS LAKE    MOSUNNY   84  66  54 SE12      29.75S
FARGO          SUNNY     88  65  46 SE18G25   29.78S HX  90
CAVALIER       FAIR      88  66  48 S14G22    29.75F HX  90
GRAFTON        FAIR      88  66  48 S14G21    29.77S HX  90
GWINNER        FAIR      88  72  58 SE16      29.77F HX  94
LANGDON        FAIR      88  64  45 SE16G22   29.79S
ROLLA            N/A     86  64  48 SE15G23   29.76S
WALHALLA       FAIR      86  66  51 MISG      29.76S
$$

CITY           SKY/WX    TMP DP  RH WIND       PRES   REMARKS
ABERDEEN       PTSUNNY   88  74  63 SE6       29.74F HX  96
MOBRIDGE       SUNNY     91  70  49 SE14      29.69F HX  96
BUFFALO          N/A     94  44  17 SE7       29.69F HX  90
RAPID CITY     SUNNY     94  50  22 SW8       29.76F HX  91
GLASGOW        MOSUNNY   93  36  13 N5        29.61F
SIDNEY         PTSUNNY   99  41  13 CALM        N/A  HX  94
WOLF POINT     PTSUNNY   99  36  11 NE6       29.59F HX  93
GLENDIVE       PTSUNNY   97  39  13 S17G25    29.66S HX  92
MILES CITY     PTSUNNY   96  39  13 SE5       29.65F HX  91
BAKER          MOSUNNY   94  39  14 SE16G23   29.72S HX  90
$$

CITY           SKY/WX    TMP DP  RH WIND       PRES   REMARKS
BILLINGS       MOSUNNY   94  29  10 W7        29.70F
GREAT FALLS    FAIR      80  33  18 W14       29.70S
REGINA         CLOUDY    81  57  44 SW10      29.62R
ESTEVAN        CLOUDY    93  55  27 S15G22    29.65F HX  91
$$




USA.gov is the U.S. government's official web portal to all federal, state and local government web resources and services.